| time (UTC) | temp F | wind direction | speed knots | gust knots | rain 1hr in | rain 24hr in | rain mn in | humidity % | barometer mb |
| 20260506193024 | 53 | 225 | 6.1 | 13.0 | 0.00 | 0.23 | 0.22 | 97 | 1006.2 |
| 20260506191558 | 54 | 245 | 8.7 | 14.8 | 0.00 | 0.23 | 0.22 | 97 | 1006.1 |
| 20260506190022 | 56 | 258 | 3.5 | 9.6 | 0.00 | 0.23 | 0.22 | 97 | 1005.8 |
| 20260506184556 | 56 | 269 | 5.2 | 8.7 | 0.00 | 0.23 | 0.22 | 97 | 1005.6 |
| 20260506183101 | 56 | 255 | 3.5 | 7.0 | 0.00 | 0.23 | 0.22 | 98 | 1005.6 |
| 20260506181522 | 56 | 245 | 3.5 | 7.0 | 0.01 | 0.23 | 0.22 | 98 | 1005.5 |
| 20260506180042 | 56 | 269 | 3.5 | 7.0 | 0.01 | 0.23 | 0.22 | 98 | 1005.5 |
| 20260506174518 | 56 | 247 | 6.1 | 8.7 | 0.02 | 0.23 | 0.22 | 98 | 1005.4 |
| 20260506173047 | 56 | 276 | 3.5 | 9.6 | 0.02 | 0.23 | 0.22 | 98 | 1005.4 |
| 20260506171523 | 57 | 212 | 2.6 | 5.2 | 0.01 | 0.22 | 0.21 | 98 | 1005.3 |
| 20260506170006 | 57 | 238 | 0.9 | 4.3 | 0.01 | 0.21 | 0.21 | 98 | 1005.0 |
| 20260506164522 | 57 | 163 | 0.0 | 4.3 | 0.01 | 0.21 | 0.20 | 98 | 1004.9 |
| 20260506163016 | 57 | 219 | 0.9 | 4.3 | 0.01 | 0.21 | 0.20 | 98 | 1004.9 |
| 20260506161555 | 57 | 132 | 1.7 | 5.2 | 0.02 | 0.21 | 0.20 | 98 | 1005.0 |
| 20260506160031 | 56 | 187 | 3.5 | 7.0 | 0.01 | 0.20 | 0.19 | 98 | 1004.9 |
| 20260506154554 | 56 | 140 | 1.7 | 4.3 | 0.01 | 0.20 | 0.19 | 98 | 1004.9 |
| 20260506153019 | 56 | 199 | 0.0 | 0.9 | 0.01 | 0.20 | 0.19 | 98 | 1004.8 |
| 20260506151554 | 55 | 224 | 0.0 | 0.9 | 0.00 | 0.19 | 0.18 | 98 | 1004.8 |
| 20260506150014 | 55 | 169 | 0.0 | 0.0 | 0.00 | 0.19 | 0.18 | 98 | 1004.7 |
| 20260506144551 | 55 | 131 | 0.0 | 0.0 | 0.00 | 0.19 | 0.18 | 98 | 1004.5 |
| 20260506143016 | 55 | 229 | 0.0 | 0.9 | 0.01 | 0.19 | 0.18 | 97 | 1004.5 |
| 20260506141552 | 54 | 202 | 0.0 | 2.6 | 0.02 | 0.19 | 0.18 | 97 | 1004.5 |
| 20260506140015 | 54 | 153 | 0.0 | 2.6 | 0.03 | 0.19 | 0.18 | 97 | 1004.5 |
| 20260506134549 | 54 | 152 | 1.7 | 4.3 | 0.03 | 0.19 | 0.18 | 97 | 1004.3 |
| 20260506133013 | 55 | 157 | 2.6 | 3.5 | 0.03 | 0.18 | 0.17 | 97 | 1004.5 |
| 20260506131600 | 54 | 198 | 0.0 | 3.5 | 0.02 | 0.17 | 0.16 | 97 | 1004.7 |
| 20260506130039 | 55 | 150 | 0.9 | 1.7 | 0.03 | 0.16 | 0.15 | 97 | 1004.7 |
| 20260506124547 | 54 | 145 | 0.9 | 2.6 | 0.05 | 0.16 | 0.15 | 97 | 1004.4 |
| 20260506123011 | 54 | 133 | 0.9 | 1.7 | 0.07 | 0.15 | 0.14 | 97 | 1004.7 |
| 20260506121548 | 54 | 94 | 0.0 | 0.0 | 0.10 | 0.15 | 0.14 | 97 | 1004.5 |
| 20260506120016 | 54 | 94 | 0.0 | 0.0 | 0.09 | 0.13 | 0.12 | 97 | 1004.9 |
| 20260506114544 | 54 | 94 | 0.0 | 0.0 | 0.07 | 0.11 | 0.10 | 97 | 1005.0 |
| 20260506113004 | 54 | 94 | 0.0 | 0.0 | 0.05 | 0.08 | 0.07 | 96 | 1005.0 |
| 20260506111548 | 54 | 94 | 0.0 | 0.0 | 0.02 | 0.05 | 0.04 | 94 | 1005.1 |
| 20260506110004 | 54 | 94 | 0.0 | 0.0 | 0.02 | 0.06 | 0.03 | 93 | 1004.6 |
| 20260506104549 | 55 | 94 | 0.0 | 0.0 | 0.02 | 0.06 | 0.03 | 93 | 1004.5 |
| 20260506103004 | 54 | 228 | 0.0 | 0.0 | 0.02 | 0.05 | 0.02 | 92 | 1004.8 |
| 20260506101542 | 55 | 228 | 0.0 | 1.7 | 0.02 | 0.05 | 0.02 | 91 | 1004.6 |
| 20260506100058 | 55 | 228 | 0.0 | 0.9 | 0.01 | 0.04 | 0.01 | 90 | 1004.7 |
| 20260506094547 | 55 | 104 | 0.0 | 1.7 | 0.01 | 0.04 | 0.01 | 90 | 1004.5 |
| 20260506093051 | 56 | 272 | 0.0 | 0.9 | 0.00 | 0.03 | 0.00 | 88 | 1004.4 |
| 20260506091535 | 57 | 271 | 0.9 | 2.6 | 0.00 | 0.03 | 0.00 | 86 | 1004.6 |
| 20260506090013 | 57 | 269 | 0.0 | 0.9 | 0.00 | 0.03 | 0.00 | 82 | 1004.5 |
| 20260506084542 | 59 | 117 | 1.7 | 2.6 | 0.00 | 0.03 | 0.00 | 77 | 1004.8 |
| 20260506083016 | 60 | 219 | 0.0 | 1.7 | 0.00 | 0.03 | 0.00 | 72 | 1005.1 |
| 20260506081540 | 61 | 231 | 3.5 | 7.8 | 0.00 | 0.03 | 0.00 | 70 | 1005.4 |
| 20260506073016 | 62 | 311 | 4.3 | 16.5 | 0.00 | 0.05 | 0.00 | 67 | 1005.3 |
| 20260506071546 | 63 | 291 | 7.0 | 14.8 | 0.00 | 0.05 | 0.00 | 64 | 1005.4 |
| 20260506061552 | 57 | 97 | 0.0 | 0.0 | 0.00 | 0.05 | 0.00 | 75 | 1005.8 |
| 20260506044610 | 57 | 330 | 0.0 | 0.9 | 0.00 | 0.05 | 0.00 | 79 | 1006.3 |
| 20260506043016 | 56 | 330 | 0.0 | 0.9 | 0.00 | 0.05 | 0.00 | 81 | 1006.4 |
| 20260506041555 | 56 | 330 | 0.0 | 0.0 | 0.00 | 0.05 | 0.00 | 81 | 1006.5 |
| 20260506040041 | 56 | 330 | 0.0 | 0.0 | 0.00 | 0.05 | 0.05 | 82 | 1006.5 |
| 20260506034520 | 56 | 78 | 0.0 | 1.7 | 0.00 | 0.05 | 0.05 | 81 | 1006.3 |
| 20260506033055 | 57 | 281 | 0.0 | 0.9 | 0.00 | 0.05 | 0.05 | 81 | 1006.2 |
| 20260506031532 | 57 | 281 | 0.9 | 2.6 | 0.00 | 0.05 | 0.05 | 82 | 1006.1 |
| 20260506030057 | 57 | 281 | 0.0 | 0.0 | 0.00 | 0.05 | 0.05 | 79 | 1006.3 |
| 20260506024546 | 57 | 281 | 0.0 | 1.7 | 0.00 | 0.05 | 0.05 | 79 | 1006.4 |
| 20260506023100 | 58 | 281 | 0.9 | 1.7 | 0.00 | 0.05 | 0.05 | 78 | 1006.5 |
| 20260506021516 | 59 | 281 | 0.0 | 0.0 | 0.00 | 0.05 | 0.05 | 75 | 1006.5 |
| 20260506020050 | 60 | 281 | 0.0 | 1.7 | 0.00 | 0.05 | 0.05 | 74 | 1006.4 |
| 20260506014517 | 60 | 281 | 0.0 | 1.7 | 0.00 | 0.05 | 0.05 | 73 | 1006.3 |
| 20260506013040 | 62 | 139 | 0.0 | 1.7 | 0.00 | 0.05 | 0.05 | 69 | 1006.3 |
| 20260506011558 | 64 | 122 | 0.0 | 1.7 | 0.00 | 0.05 | 0.05 | 64 | 1006.1 |
| 20260506010040 | 65 | 256 | 0.9 | 1.7 | 0.00 | 0.05 | 0.05 | 62 | 1005.9 |
| 20260506004518 | 66 | 172 | 0.0 | 0.9 | 0.00 | 0.05 | 0.05 | 59 | 1006.0 |
| 20260506003020 | 68 | 215 | 0.9 | 6.1 | 0.00 | 0.05 | 0.05 | 56 | 1005.9 |
| 20260506001546 | 68 | 234 | 2.6 | 8.7 | 0.00 | 0.05 | 0.05 | 55 | 1005.7 |
| 20260506000055 | 68 | 231 | 2.6 | 7.0 | 0.00 | 0.05 | 0.05 | 56 | 1005.6 |
| 20260505234536 | 69 | 255 | 4.3 | 9.6 | 0.00 | 0.05 | 0.05 | 56 | 1005.6 |
| 20260505233049 | 69 | 206 | 2.6 | 5.2 | 0.00 | 0.05 | 0.05 | 56 | 1005.5 |
| 20260505231522 | 69 | 219 | 1.7 | 7.0 | 0.00 | 0.05 | 0.05 | 55 | 1005.4 |
| 20260505230054 | 70 | 255 | 2.6 | 6.1 | 0.00 | 0.05 | 0.05 | 54 | 1005.4 |
| 20260505224524 | 70 | 240 | 3.5 | 7.0 | 0.00 | 0.05 | 0.05 | 54 | 1005.5 |
| 20260505223101 | 69 | 238 | 2.6 | 8.7 | 0.00 | 0.05 | 0.05 | 55 | 1005.6 |
| 20260505223002 | 69 | 228 | 2.6 | 8.7 | 0.00 | 0.05 | 0.05 | 55 | 1005.6 |
| 20260505221522 | 70 | 253 | 8.7 | 12.2 | 0.00 | 0.05 | 0.05 | 55 | 1005.6 |
| 20260505220100 | 70 | 282 | 7.0 | 13.0 | 0.00 | 0.05 | 0.05 | 54 | 1005.6 |
| 20260505220002 | 70 | 250 | 6.1 | 11.3 | 0.00 | 0.05 | 0.05 | 55 | 1005.6 |
| 20260505214529 | 70 | 278 | 7.0 | 13.9 | 0.00 | 0.05 | 0.05 | 54 | 1005.5 |
| 20260505213052 | 69 | 256 | 6.1 | 15.6 | 0.00 | 0.05 | 0.05 | 56 | 1005.5 |
| 20260505211520 | 69 | 259 | 3.5 | 9.6 | 0.01 | 0.05 | 0.05 | 58 | 1005.6 |
| 20260505210048 | 69 | 262 | 5.2 | 9.6 | 0.01 | 0.05 | 0.05 | 58 | 1005.5 |
| 20260505204510 | 68 | 276 | 6.1 | 11.3 | 0.01 | 0.05 | 0.05 | 62 | 1005.6 |
| 20260505203038 | 72 | 262 | 6.1 | 9.6 | 0.01 | 0.05 | 0.05 | 52 | 1005.6 |
| 20260505201516 | 73 | 252 | 5.2 | 11.3 | 0.00 | 0.04 | 0.04 | 43 | 1005.0 |
| 20260505200043 | 73 | 243 | 4.3 | 10.4 | 0.00 | 0.04 | 0.04 | 46 | 1005.1 |
| 20260505194524 | 72 | 223 | 2.6 | 7.0 | 0.00 | 0.04 | 0.04 | 49 | 1005.4 |